Tracking 18851 objects as of 25-Nov-2017
HD Live streaming from Space Station
objects crossing your sky now

FENGYUN 1C DEB

Track FENGYUN 1C DEB now!
10-day predictions


NORAD ID: 31647
Int'l Code: 1999-025CBD
Perigee: 745.7 km
Apogee: 1,006.4 km
Inclination: 98.1 °
Period: 102.3 minutes
Semi major axis: 7247 km
RCS: 0.0149 m2 (small)
Launch date: May 10, 1999
Source: People's Republic of China (PRC)
Launch site: Taiyaun Space Center, China (TSC)

Note: This is SATELLITE DEBRIS
aabbcc
Your satellite tracking list
Your tracking list is empty




NASA's NSSDC Master Catalog

Two Line Element Set (TLE):
1 31647U 99025CBD 17328.00064544  .00002577  00000-0  13454-2 0  9990
2 31647  98.0646 247.5480 0179895  33.1019 328.1260 14.07213328538865
Source of the keplerian elements: AFSPC